Location: Orange Harbor Mobile Home Park
(26.6923°N, 81.7937°W)
Time: 08:41:03
(UTC+00:00)

Cosmos 1937 Rocket - Pass Details

Date: 19 September 2020
Orbit: 747 x 779 km, 74.0° (Epoch: 29 October)

Event Time Altitude Azimuth Distance (km) Brightness Sun altitude
Rises 10:22:51 0° 350° (N) 3,193 6.7 -12.4°
Reaches altitude 10° 10:25:15 10° 355° (N) 2,265 6.0 -11.8°
Maximum altitude 10:30:18 57° 73° (ENE) 878 4.2 -10.7°
Drops below altitude 10° 10:35:18 10° 152° (SSE) 2,257 6.2 -9.6°
Sets 10:37:42 0° 156° (SSE) 3,181 6.9 -9.1°
